Location: Isles
(48.9125°N, 2.8272°E)
Time: 15:22:57
(UTC+00:00)

SL-08 ROCKET BODY - Pass Details

Date: 03 February 2023
Orbit: 896 x 962 km, 83.0° (Epoch: 30 March)

Event Time Altitude Azimuth Distance (km) Brightness Sun altitude
Rises 17:29:48 0° 353° (N) 3,551 7.3 -7.1°
Reaches altitude 10° 17:32:20 10° 357° (N) 2,598 6.6 -7.5°
Maximum altitude 17:38:10 61° 77° (ENE) 1,020 4.4 -8.4°
Drops below altitude 10° 17:43:55 10° 158° (SSE) 2,565 6.6 -9.3°
Sets 17:46:23 0° 161° (SSE) 3,501 7.4 -9.7°
